Hourly Data Report for October 19, 2016

All times are specified in Local Standard Time (LST). Add 1 hour to adjust for Daylight Saving Time where and when it is observed.

PENTICTON A
BRITISH COLUMBIA

49°27'45.000" N
119°36'08.000" W
344.40 m
1126146
71889
YYF

Download Data

Hourly Data (October 2016)
Hourly Data Report for October 19, 2016
Temp Definition
°C
Dew Point Temp Definition
°C
Rel Hum Definition
%
Wind Dir Definition
10's deg

Wind Spd Definition
km/h
Visibility Definition
km
Stn Press Definition
kPa
Hmdx Definition


Wind Chill Definition


Weather Definition


TIME
00:00 Legend Double Dagger 8.3 5.9 85 19 10 24.1 98.19     LegendNANA
01:00 Legend Double Dagger 7.9 5.9 87 16 9 24.1 98.23     Mostly Cloudy
02:00 Legend Double Dagger 7.8 4.8 81 19 8 24.1 98.32     LegendNANA
03:00 Legend Double Dagger 7.6 5.8 88 15 13 24.1 98.36     LegendNANA
04:00 Legend Double Dagger 3.1 2.4 95 33 8 24.1 98.43     Mainly Clear
05:00 Legend Double Dagger 4.0 3.3 95 9 5 24.1 98.50     LegendNANA
06:00 Legend Double Dagger 2.2 1.8 97 36 3 24.1 98.54     LegendNANA
07:00 Legend Double Dagger 2.4 1.8 96 28 3 24.1 98.59     Mainly Clear
08:00 Legend Double Dagger 7.5 6.1 91 18 16 24.1 98.63     LegendNANA
09:00 Legend Double Dagger 8.1 5.6 84 15 18 24.1 98.61     LegendNANA
10:00 Legend Double Dagger 9.1 5.7 79 16 26 24.1 98.64     Mainly Clear
11:00 Legend Double Dagger 10.4 6.0 74 18 24 24.1 98.62     LegendNANA
12:00 Legend Double Dagger 11.7 6.0 68 17 22 24.1 98.57     LegendNANA
13:00 Legend Double Dagger 13.1 4.8 57 16 26 24.1 98.48     Mainly Clear
14:00 Legend Double Dagger 13.2 3.9 53 19 30 24.1 98.43     LegendNANA
15:00 Legend Double Dagger 12.1 4.4 59 19 24 24.1 98.42     LegendNANA
16:00 Legend Double Dagger 11.6 4.6 62 19 32 24.1 98.37     Mostly Cloudy
17:00 Legend Double Dagger 11.7 4.7 62 20 26 24.1 98.36     LegendNANA
18:00 Legend Double Dagger 12.0 4.0 58 18 30 24.1 98.32     LegendNANA
19:00 Legend Double Dagger 12.0 4.5 60 18 29 24.1 98.26     Mostly Cloudy
20:00 Legend Double Dagger 12.0 4.3 59 19 34 24.1 98.16     LegendNANA
21:00 Legend Double Dagger 10.8 5.8 71 19 39 24.1 98.09     Rain Showers
22:00 Legend Double Dagger 10.8 6.0 72 18 35 24.1 98.01     Rain Showers
23:00 Legend Double Dagger 10.8 6.6 75 18 39 24.1 97.94     Rain Showers

Notes on Data Quality.

Legend

  • E = Estimated
  • M = Missing
  • NA = Not Available
  • ‡ = Partner data that is not subject to review by the National Climate Archives
Date modified: